Zurück zum Katalog

COSMOS 2251 DEB

AktivLEO
NORAD 36531·DEBRIS·🇷🇺 Russia

Gestartet Jun 16, 1993 von Plesetsk Cosmodrome

Loading…

Nächste Überflüge (nächste 24 Stunden)

TLE

AktuellSource: Space-Track

Epoche: Sep 14, 2026, 07:03 UTC

1 36531U 93036BCR 26257.29393470  .00004456  00000-0  13798-2 0  9997
2 36531  74.0808 229.5520 0152472 180.6043 179.4952 14.34989141634436

Verfolge COSMOS 2251 DEB in Echtzeit mit AllMySat

Download on the App Store